CZ-6A DEB, 54955

Orbit data source: Space-Track

CZ-6A DEB, 54955 is space debris in SSO originally from a launch on Fri, 11 Nov 2022 UTC launched from the Taiyaun Space Center, China (TSC). Debris objects in space refer to the collection of defunct objects orbiting the Earth. Examples of debris include non-operational satellites, rocket bodies, and fragments generated from explosions, collisions, or faulty payload assembly.

Loading next visibility...
Identifier
54955, 2022-151SU
Orbit
SSO
Country
Flag of CNCN / PRC
Related business
Manufacturer
SAST
Mission
Spacecraft
Bus & Motor
Unknown
Mass
Unknown
Launch date (UTC)
2022-11-11 (4 years ago)
Launch vehicle
Unknown
Launch site
Taiyaun Space Center, China (TSC)
Object type
Payload
Rocket body
Debris
Shape & HBR
Unknown shape, 0.1 m
Radar Cross Section
Medium (>0.1 m² and <1 m²)

Expand to show TLE details & history
Last TLE update: 2 days ago

TLE from 2 days ago
0 CZ-6A DEB
1 54955U 22151SU  26171.06032468  .00000409  00000-0  12856-3 0  9993
2 54955  98.5611 206.6374 0114549 322.8283  36.5014 14.42334893189211
Epoch: 2026-06-20T01:26Z
TLE epoch observation values (Epoch: 2026-06-20T01:26:52.052Z)
Latitude
-0.00003°
Longitude
-83.35985°
Altitude
688.424 km
Speed
7.546 km/s
True Right ascension
13h 46m 32s
True Declination
0° 00' 00"
Sunlit
Object was in partial shadow at epoch
Visualization orbit readout
Latitude
Unknown
Longitude
Unknown
Altitude
Unknown
Speed
Unknown
Apparent Right ascension
Unknown
Apparent Declination
Unknown
Sunlit
N/A
Visualization observer readout
Local Sidereal Time
21:38:39
Azimuth
Unknown
Elevation
Unknown
Doppler factor
Unknown
Orbital elements
Apogee altitude
829.544 km
Perigee altitude
666.287 km
Semi-major axis
7,126.052 km
Eccentricity
0.01145
Inclination
98.5611°
RAAN
206.6374°
Arg. of periapsis
322.8283°
True anomaly
37.29127°
Mean anomaly
36.5014°
Eccentric anomaly
36.89542°
Mean motion
3.60803 °/min
Orbital period
99.78 mins
BSTAR
0.00012856
Loading maneuver chart data...
Computing Atmospheric mass density...
Loading historical data...
Loading historical data...
Loading historical data...
Loading historical data...
Loading historical data...
Loading historical data...
Loading historical data...

Documentation

Showing up to 5 results
|